Back to catalog

STARLINK-5010

AliveCommunicationsVLEO
NORAD 53930·PAYLOAD·🇺🇸 United States

Launched Sep 24, 2022 from Cape Canaveral Space Force Station

Loading…

Next Passes (next 24 hours)

TLE

FreshSource: CelesTrak SupGP

Epoch: Sep 14, 2026, 13:58 UTC

1 53930C 22119AW  26257.58243056  .00033161  00000+0  12505-2 0  2575
2 53930  53.1849 121.5652 0001661  93.0579 176.6349 15.26504075    13

Track STARLINK-5010 in real time with AllMySat

Download on the App Store